Campo, CA

8:10 AM PST on December 11, 2019 (GMT -0800)
Campo

Weather History for KCZZ - June, 2019

Change the Weather History Date:

Monday, June 3, 2019

  Actual Average Record
Temperature  
Mean Temperature 60 °F 63 °F  
Max Temperature 75 °F 84 °F 101 °F (1957)
Min Temperature 45 °F 43 °F 32 °F (1966)
Degree Days  
Heating Degree Days 5 3  
Month to date heating degree days 16 10  
Since 1 June heating degree days 16 10  
Since 1 July heating degree days 3031 2937  
Cooling Degree Days 0 2  
Month to date cooling degree days 0 6  
Year to date cooling degree days 2 36  
Since 1 June cooling degree days 0 6  
Growing Degree Days 10 (Base 50)    
Moisture  
Dew Point 52 °F    
Average Humidity 73    
Maximum Humidity 96    
Minimum Humidity 49    
Precipitation  
Precipitation 0.00 in 0.00 in 0.09 in (1985)
Month to date precipitation 0.00 0.01  
Year to date precipitation 12.74 10.05  
Sea Level Pressure  
Sea Level Pressure 29.82 in    
Wind  
Wind Speed 8 mph (SSW)    
Max Wind Speed 21 mph    
Max Gust Speed 27 mph    
T = Trace of Precipitation, MM = Missing Value Source: NWS Daily Summary

Daily Weather History Graph

Daily Weather History Graph

Search for Another Location

Airport or City:

Astronomy

Jun. 03, 2019 Rise Set
Actual Time 5:38 AM PDT 7:49 PM PDT
Civil Twilight 5:10 AM PDT 8:17 PM PDT
Nautical Twilight 4:36 AM PDT 8:52 PM PDT
Astronomical Twilight 3:59 AM PDT 9:29 PM PDT
Moon 5:59 AM PDT (6/3) 8:20 PM PDT (6/3)
Length of Visible Light 15h 07m
Length of Day
14h 11m
New Moon, 0% of the Moon is Illuminated
Jun 3
New Moon
Jun 9
First Quarter
Jun 17
Full
Jun 25
Last Quarter
Jul 2
New

Hourly Weather History & Observations

Time (PDT) Temp. Windchill Dew Point Humidity Pressure Visibility Wind Dir Wind Speed Gust Speed Precip Events Conditions
12:52 AM 48.0 °F - 45.0 °F 89% 29.80 in - NNE 3.5 mph - N/A   Unknown
1:52 AM 46.0 °F 44.8 °F 44.1 °F 93% 29.79 in - NE 3.5 mph - N/A   Unknown
2:52 AM 46.0 °F - 44.1 °F 93% 29.79 in - Calm Calm - N/A   Unknown
3:52 AM 46.9 °F - 45.0 °F 93% 29.80 in - Calm Calm - N/A   Unknown
4:52 AM 48.9 °F - 46.9 °F 93% 29.79 in - ENE 4.6 mph - N/A   Unknown
5:52 AM 50.0 °F - 48.9 °F 96% 29.81 in - Calm Calm - N/A   Unknown
6:52 AM 50.0 °F - 48.9 °F 96% 29.82 in - Calm Calm - N/A   Unknown
7:52 AM 51.1 °F - 50.0 °F 96% 29.83 in - Calm Calm - N/A   Unknown
8:52 AM 53.1 °F - 52.0 °F 96% 29.84 in - Calm Calm - N/A   Unknown
9:52 AM 63.0 °F - 51.1 °F 65% 29.82 in - SW 6.9 mph - N/A   Unknown
10:52 AM 66.9 °F - 53.1 °F 61% 29.83 in - SW 9.2 mph - N/A   Unknown
11:52 AM 69.1 °F - 54.0 °F 58% 29.83 in - SW 15.0 mph - N/A   Unknown
12:52 PM 72.0 °F - 54.0 °F 53% 29.82 in - SW 17.3 mph - N/A   Unknown
1:52 PM 73.0 °F - 54.0 °F 51% 29.81 in - SW 17.3 mph 26.5 mph N/A   Unknown
2:52 PM 73.9 °F - 55.0 °F 52% 29.80 in - SW 19.6 mph - N/A   Unknown
3:52 PM 73.0 °F - 55.9 °F 55% 29.80 in - SSW 18.4 mph - N/A   Unknown
4:52 PM 70.0 °F - 55.9 °F 61% 29.79 in - SSW 17.3 mph - N/A   Unknown
5:52 PM 66.9 °F - 55.0 °F 66% 29.79 in - SW 15.0 mph - N/A   Unknown
6:52 PM 62.1 °F - 54.0 °F 75% 29.81 in - SSW 13.8 mph - N/A   Unknown
7:52 PM 57.9 °F - 53.1 °F 84% 29.83 in - SSW 12.7 mph - N/A   Unknown
8:52 PM 55.9 °F - 53.1 °F 90% 29.84 in - South 5.8 mph - N/A   Unknown
9:52 PM 57.0 °F - 55.0 °F 93% 29.85 in - Calm Calm - N/A   Unknown
10:52 PM 57.0 °F - 55.0 °F 93% 29.84 in - Calm Calm - N/A   Unknown
11:52 PM 57.0 °F - 54.0 °F 89% 29.83 in - Calm Calm - N/A   Unknown